Wind_Speed
7 3 2 1 1 1 3 5 5 5 4 2 3 3 4 2 0 1 5 8 8 7 6 8 10 11 12 13 13 12 11 10 11 10 11 8 5 4 3 3 1 3 5 7 9 11 9 8 9
6 7 7 3 2 2 4 7 10 10 6 3 4 3 2 4 3 3 5 8 9 8 8 9 10 11 12 13 13 13 11 10 10 10 10 6 4 3 3 4 5 6 7 8 10 11 12 11 11
6 7 7 7 4 3 8 9 9 10 9 6 5 3 2 3 5 3 4 7 9 10 10 11 12 12 13 14 14 13 11 11 10 9 7 6 3 4 4 5 7 8 9 9 9 11 13 13 12
5 7 8 6 3 5 10 13 12 10 9 9 7 4 2 1 2 2 4 6 9 10 10 11 13 14 14 15 15 13 12 11 10 8 5 4 3 4 3 3 7 11 11 10 11 13 13 13 12
5 8 12 11 4 4 8 14 15 13 9 9 8 6 4 3 3 1 5 7 9 10 11 13 14 14 14 15 16 13 12 11 9 8 6 6 7 7 6 5 9 15 16 14 14 15 15 15 15
8 10 15 11 4 8 8 12 17 18 15 11 9 8 5 5 6 6 7 9 10 10 10 13 15 17 17 17 17 14 13 11 11 10 9 9 8 7 7 7 8 13 17 17 17 18 16 17 17
9 9 8 5 4 10 13 13 15 18 19 13 9 10 8 6 6 6 8 10 10 10 11 14 17 18 19 19 19 16 14 13 13 13 11 11 10 9 8 7 8 11 13 14 16 17 16 15 15
12 12 11 5 6 10 14 16 15 17 19 16 12 12 10 8 7 6 7 10 11 12 13 16 19 18 18 19 20 18 17 17 15 14 13 12 11 10 8 7 8 9 12 14 15 18 18 17 16
17 16 14 10 8 10 14 18 19 19 19 17 12 12 10 7 6 5 7 9 12 14 16 20 21 19 17 19 20 20 18 17 15 15 15 14 11 8 7 7 9 9 11 15 16 17 18 17 18
21 19 17 12 8 11 15 19 20 21 20 17 12 9 7 4 4 6 8 10 15 17 20 23 22 18 16 17 20 20 19 17 16 15 15 15 10 7 6 7 10 10 11 12 14 16 20 19 18
23 24 22 16 9 10 15 19 21 21 21 15 10 8 4 3 4 8 12 14 16 20 22 22 19 15 13 13 21 21 19 20 17 16 15 13 10 7 5 7 10 9 9 8 8 10 17 20 19
23 26 28 20 12 9 15 18 21 19 16 12 7 5 5 7 9 12 14 16 17 22 22 19 19 17 17 16 25 24 22 20 18 16 14 10 9 8 7 6 9 8 7 6 8 8 11 13 19
27 27 19 18 14 12 15 17 19 17 13 8 6 5 6 9 11 13 16 19 22 25 25 19 17 14 17 17 20 22 24 20 17 14 13 9 8 11 9 9 9 9 8 6 8 8 10 10 14
30 27 21 19 19 15 15 16 17 14 11 10 9 9 9 11 14 17 18 24 27 27 25 21 19 22 17 12 17 24 25 20 18 18 14 10 9 12 11 9 11 11 9 9 10 9 7 8 10
31 31 22 21 20 15 15 18 14 12 10 11 12 12 12 15 18 20 22 23 23 22 24 25 19 22 19 14 23 23 22 18 17 19 16 11 10 12 12 11 12 13 12 9 11 10 7 7 10
32 24 24 22 19 18 16 18 19 12 10 10 12 15 15 17 19 22 26 27 26 22 21 21 20 25 26 24 22 18 19 16 17 16 17 12 11 13 13 13 14 15 13 11 13 13 9 8 7
34 23 20 21 23 22 19 14 18 16 12 11 12 14 15 19 21 24 27 29 29 28 23 20 21 26 26 20 19 18 15 15 14 13 15 13 12 15 16 15 15 14 12 14 15 12 11 12 8
23 19 23 23 21 20 19 15 16 17 15 13 13 15 16 19 23 24 26 29 31 31 25 24 22 20 18 16 20 22 19 20 12 13 15 14 15 19 19 17 15 16 16 16 16 14 14 15 10
26 23 21 17 17 18 17 17 18 18 17 14 14 16 17 18 21 23 25 29 30 30 25 22 21 17 16 18 20 19 21 19 15 20 21 18 17 21 24 20 16 17 16 19 19 16 17 14 10
23 22 18 16 18 20 18 18 18 19 17 14 15 16 18 19 21 24 26 28 29 29 27 23 20 19 19 21 22 24 23 21 21 23 23 19 19 22 28 25 21 20 20 18 21 20 18 15 11
23 23 21 19 20 22 23 21 19 19 16 14 16 17 18 22 23 24 25 26 27 26 24 22 21 23 24 25 25 25 22 23 24 23 25 23 21 24 26 24 24 24 21 22 19 20 17 17 15
22 23 24 22 24 23 24 20 20 22 19 16 14 13 14 19 23 26 26 24 24 23 22 22 24 26 26 25 23 20 19 22 23 23 21 24 24 26 23 25 25 25 22 23 24 23 21 20 18
23 25 26 25 26 24 23 23 21 24 21 17 14 13 15 19 22 25 28 28 24 23 24 26 28 28 26 23 21 19 20 21 21 20 20 22 23 22 24 26 26 26 27 27 29 27 23 20 18
22 22 22 22 22 23 21 23 21 23 21 19 15 16 19 22 24 24 26 28 27 26 26 27 26 25 24 24 22 21 22 22 20 22 25 24 23 22 26 30 29 30 28 29 28 25 24 20 20
23 21 20 20 21 19 22 23 20 22 22 21 20 21 21 24 26 25 26 28 29 28 27 23 21 20 20 20 20 20 21 20 18 21 25 26 26 27 29 32 33 32 30 27 24 24 27 25 23
21 21 20 21 23 23 26 24 22 23 24 25 24 22 24 27 29 28 28 27 27 27 22 19 19 19 18 17 18 18 19 18 15 16 20 21 20 20 21 27 28 26 28 30 28 28 26 27 26
21 20 23 25 26 27 26 25 25 26 25 25 23 24 27 29 31 30 30 30 23 20 17 16 17 17 15 15 14 15 16 17 17 15 17 20 18 17 21 28 27 27 29 31 34 31 28 26 27
24 23 23 25 25 26 25 24 24 27 26 25 26 27 27 28 26 27 27 28 21 17 15 15 16 16 15 15 14 15 16 15 17 19 19 20 21 22 21 20 29 30 31 31 29 28 30 28 28
22 22 22 25 27 28 26 22 24 26 25 25 23 25 26 25 23 23 22 20 17 16 15 15 15 15 14 15 18 18 18 17 14 17 20 22 24 25 24 23 27 28 28 30 30 27 25 23 24
27 24 24 27 29 29 28 25 24 26 27 25 24 25 24 23 22 25 22 19 18 16 15 15 16 15 16 17 18 19 20 19 18 16 19 21 21 24 26 29 28 24 25 27 25 24 21 20 21
Wind_Direction
172 159 163 145 73 0 350 0 352 336 322 329 332 291 253 240 293 52 48 44 32 17 350 343 342 340 331 327 322 318 321 322 324 319 322 320 308 297 302 299 230 169 162 168 189 202 203 207 215
166 145 163 170 157 328 4 12 1 345 332 344 342 310 234 171 151 107 63 45 28 19 6 354 345 338 332 325 320 315 317 317 323 324 332 331 308 288 267 249 235 198 181 187 205 211 211 210 214
164 165 203 191 218 345 6 6 8 353 335 331 343 336 290 148 148 130 69 33 19 9 4 358 356 343 331 324 314 309 305 308 317 323 338 348 302 279 264 240 222 207 199 198 208 215 214 211 208
195 216 238 229 238 11 5 356 1 15 346 330 332 345 290 284 152 134 61 17 14 6 360 354 355 346 333 321 312 301 295 299 309 317 321 341 314 276 283 250 231 220 214 211 212 217 218 214 212
261 251 259 246 246 331 360 353 354 1 359 340 325 321 315 268 244 349 0 3 4 4 3 355 350 336 322 317 308 296 285 287 300 310 305 301 297 268 255 255 239 229 226 229 228 225 217 214 212
251 281 285 231 246 307 345 351 346 341 336 340 327 305 288 270 282 320 342 350 3 2 352 343 340 328 320 313 307 298 286 286 293 300 298 301 295 279 262 270 240 222 222 229 234 229 217 213 213
265 280 279 299 326 327 335 339 338 329 324 329 318 287 286 282 283 306 336 343 358 353 341 335 333 324 319 314 308 302 294 293 292 298 304 307 301 285 271 263 235 212 215 222 220 221 221 218 218
265 267 269 288 319 323 325 329 333 325 319 319 309 286 278 286 283 299 335 338 344 343 331 328 323 314 317 313 310 305 298 295 293 298 307 314 311 292 265 253 232 211 216 217 227 231 229 229 232
257 260 265 280 303 310 321 325 335 328 321 320 318 294 282 273 273 300 333 333 334 337 330 327 318 310 315 313 311 309 305 299 293 293 302 312 314 293 259 235 227 223 228 226 237 240 240 239 238
254 254 259 272 289 296 317 321 333 332 325 325 318 291 273 252 271 321 337 339 339 337 326 325 314 310 318 315 308 308 306 301 290 285 289 301 310 292 254 231 218 222 232 233 231 231 237 238 238
254 255 255 249 236 276 309 319 327 333 326 329 314 300 286 295 314 334 340 336 334 333 326 321 316 310 307 318 315 304 304 299 290 279 277 291 297 279 240 227 218 225 230 237 235 231 239 241 237
254 256 259 250 250 276 298 317 323 328 325 326 312 292 295 308 327 336 337 332 333 330 331 322 317 317 302 314 326 309 308 302 290 278 266 269 271 259 239 237 226 224 233 242 242 235 242 241 237
259 264 269 254 253 272 297 318 318 319 321 317 289 277 302 307 320 330 329 324 326 332 338 328 324 306 297 305 320 306 303 307 298 278 262 252 250 248 246 240 223 216 218 222 225 233 250 243 235
265 270 273 262 258 265 293 307 307 311 310 303 281 267 276 299 315 319 323 329 327 330 332 325 311 298 289 305 327 312 300 304 297 283 270 252 238 240 246 242 224 211 208 215 217 213 242 259 232
263 261 255 262 262 260 282 294 299 298 292 289 292 287 289 297 306 319 326 333 335 333 315 323 288 286 285 306 327 314 292 289 284 278 271 256 236 237 242 238 218 212 209 219 218 224 236 248 244
268 256 259 271 275 277 278 292 294 289 283 289 293 296 305 307 311 317 323 329 332 332 308 300 270 275 281 302 322 310 286 288 285 273 266 249 234 241 239 237 226 209 199 214 212 219 229 225 252
262 254 265 272 277 277 274 281 288 291 287 288 290 295 301 308 316 320 323 323 327 328 317 295 282 285 291 294 294 309 293 296 281 270 261 238 226 238 236 234 233 211 200 204 211 220 233 224 242
259 260 271 275 276 269 271 286 284 284 284 286 289 290 300 310 316 320 320 321 325 326 321 305 295 289 291 304 301 301 288 279 268 261 267 243 235 238 234 228 227 216 200 206 211 212 225 226 225
261 267 267 260 260 262 273 289 289 286 283 284 284 290 299 306 308 315 318 320 320 320 319 306 295 290 287 295 298 285 291 275 258 247 264 253 243 238 229 228 219 211 208 210 206 212 226 233 227
255 257 259 261 262 271 277 279 281 282 283 280 279 284 294 302 314 316 313 312 314 315 314 309 293 287 292 294 289 285 291 288 284 262 254 249 238 234 227 222 223 221 228 216 202 213 231 235 235
258 252 253 258 269 273 273 273 269 266 263 260 274 293 307 310 311 307 304 306 310 308 306 303 292 286 291 292 285 286 282 281 278 270 251 240 234 233 225 226 223 220 216 215 211 227 237 238 240
246 244 243 256 270 272 273 269 264 266 264 259 267 295 305 304 304 302 303 302 304 303 301 300 296 294 295 293 289 286 283 286 278 264 251 239 233 227 224 224 222 218 221 233 230 223 231 237 242
246 246 254 259 259 258 260 266 266 269 275 276 279 295 297 296 305 310 311 308 299 293 294 295 294 291 290 291 291 293 293 295 283 253 241 242 231 226 228 229 226 226 230 233 230 232 241 239 251
247 245 251 254 257 259 261 266 272 278 280 277 284 294 296 301 305 308 310 308 302 297 295 293 291 287 283 280 282 287 288 293 281 251 232 227 227 233 231 222 217 222 226 223 221 229 242 240 242
246 246 250 253 256 253 259 264 264 268 267 275 291 294 297 301 301 304 304 306 304 301 299 296 293 292 291 288 284 285 286 287 274 251 231 224 223 232 233 215 218 226 224 219 232 231 231 236 240
235 242 248 250 252 249 254 261 265 263 268 279 287 293 295 303 304 303 298 298 299 295 294 296 299 298 296 294 293 286 282 279 272 264 245 232 229 235 219 220 224 227 220 221 236 232 230 235 236
242 242 243 247 250 255 260 262 260 264 276 282 286 287 291 295 296 295 296 299 297 287 289 293 298 296 299 296 295 296 287 278 268 261 252 248 263 246 233 233 233 242 236 227 229 230 232 243 246
235 237 245 247 252 257 255 257 266 273 277 281 286 287 289 293 289 287 289 290 293 287 288 294 299 301 303 295 291 293 287 277 262 256 253 257 262 256 250 250 241 248 239 241 244 247 244 243 245
237 246 250 256 257 262 262 263 266 266 269 275 280 285 292 300 305 309 296 283 281 284 291 297 301 304 300 291 285 282 282 285 278 262 256 251 258 257 248 244 245 239 240 246 242 243 234 240 242
242 252 260 266 267 265 268 268 261 261 259 263 272 279 287 299 294 306 305 295 282 279 288 294 296 298 298 297 292 286 282 278 274 265 250 254 258 257 263 237 241 243 236 235 233 232 229 238 240
Height
5902 5903 5904 5904 5905 5904 5903 5902 5900 5900 5900 5900 5899 5898 5896 5895 5896 5898 5895 5892 5891 5890 5890 5890 5889 5887 5886 5885 5884 5882 5881 5880 5879 5877 5876 5875 5874 5873 5872 5872 5872 5872 5871 5872 5874 5876 5877 5879 5880
5902 5903 5904 5904 5903 5902 5903 5901 5900 5899 5900 5900 5898 5896 5895 5894 5893 5894 5893 5892 5891 5890 5890 5890 5888 5887 5885 5884 5883 5882 5881 5880 5878 5877 5875 5875 5874 5873 5872 5872 5872 5872 5873 5874 5875 5876 5877 5878 5879
5902 5902 5903 5902 5902 5902 5902 5901 5901 5900 5898 5898 5898 5895 5895 5894 5893 5893 5892 5891 5890 5889 5888 5889 5887 5886 5884 5883 5881 5880 5879 5878 5878 5876 5875 5874 5873 5872 5871 5871 5872 5872 5873 5874 5875 5876 5878 5879 5879
5903 5904 5904 5904 5904 5903 5902 5901 5901 5901 5899 5897 5897 5896 5895 5894 5893 5893 5891 5890 5888 5888 5887 5887 5885 5884 5883 5881 5879 5878 5878 5877 5876 5875 5874 5873 5872 5871 5870 5870 5871 5872 5873 5874 5875 5876 5876 5878 5879
5905 5904 5904 5903 5903 5904 5903 5901 5901 5901 5901 5898 5897 5896 5894 5894 5893 5891 5889 5888 5887 5886 5886 5885 5883 5882 5881 5879 5877 5876 5875 5874 5874 5873 5872 5872 5871 5870 5869 5869 5869 5870 5871 5873 5874 5874 5875 5876 5877
5904 5904 5902 5900 5900 5901 5902 5900 5898 5898 5898 5898 5896 5894 5893 5893 5892 5891 5889 5887 5885 5884 5884 5883 5882 5880 5879 5877 5874 5873 5872 5872 5872 5871 5871 5870 5869 5868 5867 5867 5866 5866 5867 5869 5870 5872 5874 5875 5876
5902 5903 5901 5898 5899 5899 5900 5900 5899 5897 5894 5896 5895 5893 5891 5891 5890 5889 5887 5885 5883 5882 5882 5881 5879 5878 5876 5874 5872 5870 5869 5869 5869 5869 5868 5867 5866 5866 5864 5864 5863 5863 5864 5865 5868 5870 5872 5874 5875
5900 5901 5899 5898 5899 5899 5898 5898 5898 5895 5893 5892 5891 5890 5889 5889 5887 5887 5885 5883 5881 5880 5879 5878 5877 5875 5874 5871 5869 5868 5867 5867 5866 5866 5865 5864 5862 5861 5861 5861 5861 5862 5863 5864 5866 5867 5870 5872 5873
5898 5899 5897 5897 5899 5898 5897 5895 5894 5893 5891 5889 5889 5887 5887 5886 5885 5885 5884 5882 5880 5877 5875 5874 5874 5872 5871 5869 5866 5865 5864 5864 5863 5863 5863 5861 5859 5858 5858 5859 5860 5861 5862 5862 5863 5865 5867 5869 5870
5896 5895 5895 5895 5896 5896 5895 5893 5892 5890 5888 5887 5886 5884 5885 5885 5884 5883 5882 5880 5878 5875 5872 5871 5869 5869 5869 5867 5864 5861 5860 5860 5859 5859 5860 5859 5857 5855 5856 5857 5857 5858 5859 5860 5860 5862 5863 5865 5866
5893 5893 5894 5894 5893 5893 5892 5891 5889 5888 5885 5886 5884 5883 5883 5883 5883 5881 5879 5879 5877 5874 5870 5868 5866 5866 5866 5863 5861 5857 5855 5856 5854 5854 5856 5857 5856 5854 5854 5854 5855 5856 5857 5857 5857 5859 5859 5861 5863
5891 5889 5891 5892 5891 5892 5890 5889 5887 5886 5885 5883 5882 5881 5881 5881 5881 5879 5878 5877 5876 5873 5869 5866 5863 5861 5861 5860 5858 5855 5852 5851 5849 5849 5851 5853 5854 5853 5852 5853 5853 5854 5855 5855 5855 5856 5856 5859 5860
5888 5887 5889 5888 5890 5890 5888 5887 5885 5883 5882 5882 5881 5880 5880 5879 5879 5877 5875 5872 5872 5869 5865 5861 5859 5857 5856 5856 5855 5852 5850 5848 5846 5846 5847 5848 5850 5850 5851 5851 5851 5851 5852 5853 5852 5854 5855 5857 5859
5886 5886 5886 5887 5887 5888 5885 5885 5882 5880 5879 5879 5879 5879 5878 5877 5874 5873 5872 5869 5865 5863 5860 5857 5855 5853 5851 5850 5850 5847 5844 5845 5846 5844 5844 5844 5847 5847 5849 5851 5849 5847 5849 5850 5851 5854 5855 5856 5856
5883 5883 5884 5885 5883 5883 5883 5882 5880 5878 5877 5876 5875 5875 5875 5873 5870 5870 5869 5866 5862 5859 5854 5853 5852 5849 5848 5847 5845 5845 5841 5840 5841 5840 5839 5842 5844 5845 5847 5848 5846 5847 5849 5850 5851 5854 5855 5855 5856
5878 5878 5879 5880 5879 5878 5881 5878 5875 5876 5874 5873 5872 5870 5869 5867 5866 5865 5863 5860 5858 5855 5852 5851 5848 5844 5843 5842 5841 5843 5840 5838 5839 5836 5834 5839 5840 5841 5844 5845 5845 5846 5848 5849 5849 5852 5853 5854 5854
5871 5872 5874 5875 5873 5873 5874 5875 5873 5872 5871 5870 5869 5867 5865 5862 5862 5860 5858 5855 5853 5850 5849 5846 5843 5840 5839 5838 5838 5838 5836 5833 5833 5832 5832 5834 5836 5837 5840 5843 5843 5844 5846 5847 5848 5849 5852 5853 5853
5866 5866 5868 5869 5869 5869 5869 5870 5870 5868 5867 5866 5865 5862 5860 5858 5857 5856 5853 5850 5847 5845 5843 5840 5838 5837 5836 5834 5832 5831 5832 5831 5829 5829 5830 5831 5832 5833 5833 5839 5841 5842 5844 5845 5846 5848 5851 5851 5851
5862 5863 5864 5865 5866 5866 5866 5866 5865 5864 5863 5862 5860 5858 5857 5855 5853 5851 5848 5845 5842 5839 5838 5837 5834 5833 5832 5831 5829 5828 5827 5827 5826 5825 5825 5826 5828 5829 5829 5833 5839 5840 5842 5842 5844 5847 5848 5848 5849
5857 5858 5859 5861 5861 5861 5861 5860 5860 5859 5859 5858 5855 5853 5852 5851 5847 5844 5842 5839 5836 5834 5833 5831 5829 5828 5828 5827 5826 5824 5821 5821 5821 5820 5820 5820 5823 5824 5823 5829 5834 5836 5838 5839 5840 5845 5845 5846 5847
5853 5854 5856 5856 5855 5854 5855 5855 5854 5853 5855 5854 5852 5849 5847 5844 5842 5840 5837 5833 5831 5830 5829 5827 5825 5824 5824 5824 5822 5819 5817 5815 5814 5813 5813 5815 5817 5818 5820 5823 5828 5832 5834 5835 5836 5838 5840 5843 5845
5848 5849 5850 5851 5850 5849 5850 5851 5849 5848 5848 5849 5846 5844 5843 5841 5838 5835 5833 5829 5827 5825 5823 5822 5821 5819 5818 5817 5816 5815 5813 5811 5808 5807 5807 5808 5812 5812 5814 5817 5821 5826 5829 5830 5832 5835 5838 5840 5842
5844 5844 5844 5844 5844 5844 5843 5843 5844 5843 5843 5843 5842 5840 5839 5837 5833 5827 5825 5823 5823 5821 5820 5818 5815 5813 5811 5810 5810 5810 5808 5806 5804 5802 5803 5806 5807 5808 5810 5812 5815 5819 5822 5824 5827 5831 5834 5836 5838
5838 5839 5838 5838 5839 5839 5837 5838 5839 5837 5837 5837 5836 5835 5833 5830 5826 5822 5819 5817 5815 5815 5814 5812 5809 5807 5805 5805 5805 5805 5804 5802 5800 5798 5798 5801 5803 5805 5806 5809 5811 5814 5816 5818 5821 5824 5829 5832 5834
5834 5835 5834 5834 5834 5834 5832 5832 5834 5832 5831 5830 5830 5828 5827 5824 5821 5819 5816 5812 5809 5807 5806 5805 5803 5801 5799 5798 5798 5799 5797 5796 5795 5794 5795 5797 5799 5801 5802 5805 5807 5808 5810 5813 5815 5818 5822 5827 5829
5828 5829 5830 5830 5830 5829 5827 5827 5828 5826 5825 5825 5824 5823 5822 5819 5816 5814 5811 5808 5805 5802 5801 5799 5797 5795 5794 5793 5793 5793 5792 5791 5791 5790 5791 5794 5795 5796 5797 5799 5802 5804 5805 5807 5811 5814 5817 5820 5823
5821 5822 5822 5823 5823 5823 5823 5823 5823 5821 5819 5818 5818 5818 5816 5814 5812 5809 5805 5801 5800 5799 5797 5795 5793 5791 5790 5790 5788 5787 5787 5786 5786 5787 5787 5788 5790 5792 5793 5795 5797 5799 5802 5802 5803 5806 5809 5814 5817
5815 5815 5815 5816 5817 5816 5817 5816 5817 5815 5814 5813 5813 5813 5811 5809 5807 5804 5801 5796 5795 5795 5793 5790 5787 5785 5784 5784 5784 5783 5781 5781 5781 5782 5783 5784 5784 5784 5786 5787 5791 5793 5795 5797 5798 5799 5802 5807 5810
5809 5809 5808 5809 5809 5809 5809 5813 5811 5809 5809 5808 5808 5807 5805 5804 5801 5798 5796 5793 5790 5789 5788 5786 5784 5782 5781 5781 5781 5780 5778 5776 5776 5776 5778 5778 5779 5779 5780 5783 5785 5786 5788 5791 5792 5792 5796 5799 5801
5801 5801 5802 5802 5801 5802 5802 5808 5805 5802 5802 5802 5802 5801 5800 5799 5796 5793 5791 5788 5786 5785 5784 5783 5781 5779 5777 5777 5776 5776 5775 5773 5773 5772 5773 5774 5774 5774 5774 5775 5778 5780 5780 5782 5784 5786 5789 5792 5794